#timestamp,LO_Frequency,Hit,StdDev 
1542067215.6,286047001.2,N
1542067235.4,286046998.7,N
1542067255.3,286047001.1,N
1542067275.1,286047000.9,N
1542067295.8,286047001.2,N
1542067315.7,286047000.8,N
1542067335.5,286046999.9,N
1542067355.4,286047000.3,N
1542067375.2,286047000.1,N
1542067395.0,286047000.0,N
1542067395.9,286047000.0,N
1542067415.8,286047000.8,N
1542067435.6,286047000.5,N
1542067455.4,286047000.1,N
1542067475.3,286047000.2,N
1542067495.1,286047000.2,N
1542067515.9,286047000.8,N
1542067535.7,286046998.5,N
1542067555.5,286047000.4,N
1542067575.4,286047000.5,N
1542067595.2,286047001.0,N
1542067615.0,286046999.9,N
1542067615.9,286046999.9,N
1542067635.8,286047000.4,N
1542067655.6,286047000.7,N
1542067675.5,286047000.9,N
1542067695.3,286047000.8,N
1542067715.1,286047000.0,N
1542067735.9,286047000.4,N
1542067755.7,286047000.8,N
1542067775.5,286047000.7,N
1542067795.4,286047000.4,N
1542067815.2,286047000.3,N
1542067835.1,286046999.8,N
1542067836.0,286046999.8,N
1542067855.8,286047002.4,Y
1542067875.6,286047002.5,P
1542067895.5,286047002.4,N
1542067915.3,286047002.6,N
1542067935.2,286047002.7,N
1542067955.9,286046999.7,N
1542067975.7,286047002.8,N
1542067995.6,286047000.6,N
1542068015.4,286047000.7,N
1542068035.2,286046999.7,N
1542068055.1,286047000.0,N
1542068056.0,286047000.0,N
1542068075.8,286047000.2,N
1542068095.7,286046998.7,N
1542068115.5,286047001.1,N
1542068135.3,286047001.1,N
1542068155.2,286046999.7,N
1542068175.0,286047002.4,N
1542068175.9,286047002.4,N
1542068195.7,286047000.5,N
1542068215.6,286047000.0,N
1542068235.4,286047000.5,N
1542068255.3,286047000.5,N
1542068275.1,286047000.4,N
1542068276.0,286047000.4,N
1542068295.8,286047000.3,N
1542068315.7,286047000.5,N
1542068335.5,286047000.4,N
1542068355.3,286047000.4,N
1542068375.2,286046999.8,N
1542068395.0,286047000.3,N
1542068395.9,286047000.3,N
1542068415.8,286047000.1,N
1542068435.6,286047000.6,N
1542068455.4,286047000.5,N
1542068475.3,286047000.4,N
1542068495.1,286047000.4,N
1542068515.9,286047000.6,N
1542068535.7,286047000.2,N
1542068555.5,286047000.0,N
1542068575.4,286046998.1,N
1542068595.2,286047001.2,N
1542068615.0,286046999.0,N
1542068615.9,286046999.0,N
1542068635.8,286047001.2,N
1542068655.6,286047000.7,N
1542068675.5,286046998.2,N
1542068695.3,286047000.9,N
1542068715.1,286047000.6,N
1542068735.9,286047000.6,N
1542068755.7,286046999.9,N
1542068775.5,286047000.7,N
1542068795.4,286046999.9,N
1542068815.2,286047000.4,N
1542068835.1,286047000.0,N
1542068836.0,286047000.0,N
1542068855.8,286047000.1,N
1542068875.6,286047002.2,Y
1542068895.5,286047000.1,P
1542068915.3,286046999.7,P
1542068935.2,286047002.3,P
1542068955.9,286047002.3,N
1542068975.7,286047004.0,Y
1542068995.6,286047000.3,P
1542069015.4,286047000.6,N
1542069035.2,286046998.2,P
1542069055.1,286047001.2,N
1542069056.0,286047001.2,N
1542069075.8,286046998.9,N
1542069095.7,286046998.9,N
1542069115.5,286046999.0,N
1542069135.3,286046998.4,N
1542069155.2,286046998.4,N
1542069175.0,286046998.3,N
1542069175.9,286046998.3,N
1542069195.8,286046999.0,N
1542069215.6,286046998.8,N
1542069235.5,286046998.8,N
1542069255.3,286046998.3,N
1542069275.1,286046999.6,N
1542069295.9,286046999.4,N
1542069315.7,286046998.9,N
1542069335.5,286046997.2,N
1542069355.4,286046997.8,N
1542069375.2,286046997.8,N
1542069395.1,286046997.8,N
1542069396.0,286046997.8,N
1542069415.8,286046998.0,N
1542069435.6,286046997.4,N
1542069455.5,286046995.3,Y
1542069475.3,286046997.5,P
1542069495.2,286046997.4,P
1542069515.9,286046997.8,P
1542069535.7,286046996.0,Y
1542069555.6,286046996.6,P
1542069575.4,286046996.6,P
1542069595.3,286046999.5,N
1542069615.1,286046998.8,N
1542069616.0,286046998.8,N
1542069635.8,286046998.8,N
1542069655.7,286046996.8,Y
1542069675.5,286046998.7,P
1542069695.4,286046999.3,N
1542069715.2,286046999.2,N
1542069735.0,286046996.6,Y
1542069735.9,286046996.6,P
1542069755.8,286046999.5,N
1542069775.6,286046999.2,N
1542069795.4,286046996.9,N
1542069815.3,286046999.1,N
1542069835.1,286046999.5,N
1542069855.9,286046996.9,N
1542069875.7,286046996.8,N
1542069895.5,286046999.2,N
1542069915.4,286046996.6,N
1542069935.2,286046997.1,N
1542069955.1,286046994.9,Y
1542069956.0,286046994.9,P
1542069975.8,286046999.6,N
1542069995.6,286046999.1,N
1542070015.5,286046999.3,N
1542070035.3,286046998.5,N
1542070055.1,286047000.5,N
1542070075.9,286046999.9,N
1542070095.7,286047000.0,N
1542070115.6,286047001.2,N
1542070135.4,286046998.5,N
1542070155.2,286047000.0,N
1542070175.1,286047000.7,N
1542070176.0,286047000.7,N
1542070195.8,286046998.5,N
1542070215.6,286046998.7,N
1542070235.5,286046999.3,N
1542070255.3,286046996.6,N
1542070275.2,286046996.5,N
1542070295.9,286046999.2,N
1542070315.7,286046998.9,N
1542070335.6,286046996.6,N
1542070355.4,286046999.0,N
1542070375.2,286046999.0,N
1542070395.1,286046998.4,N
1542070396.0,286046998.4,N
1542070415.8,286046998.9,N
1542070435.7,286046998.3,N
1542070455.5,286047000.6,N
1542070475.3,286047000.3,N
1542070495.2,286046998.3,N
1542070515.0,286047001.2,N
1542070515.9,286047001.2,N
1542070535.8,286046998.3,N
1542070555.6,286046999.1,N
1542070575.4,286046999.2,N
1542070595.3,286046997.7,N
1542070615.1,286046998.9,N
1542070635.9,286046998.8,N
1542070655.7,286046998.9,N
1542070675.5,286046999.6,N
1542070695.4,286046997.8,N
1542070715.2,286046997.2,N
1542070735.0,286046997.6,N
1542070735.9,286046997.6,N
1542070755.8,286046995.6,Y
1542070775.6,286046996.6,P
1542070795.5,286047000.8,N
